Location: Antichan
(42.9728°N, 0.6667°E)
Time: 14:04:41
(UTC+00:00)

NOSS 3-2 (C) - Pass Details

Date: 15 August 2020
Orbit: 793 x 1419 km, 63.4° (Epoch: 21 September)

Event Time Altitude Azimuth Distance (km) Brightness Sun altitude
Rises 19:57:20 0° 200° (SSW) 3,311 6.2 -10.5°
Reaches altitude 10° 19:59:41 10° 196° (SSW) 2,419 5.4 -10.9°
Maximum altitude 20:05:05 56° 119° (ESE) 1,045 3.4 -11.7°
Drops below altitude 10° 20:11:12 10° 43° (NE) 2,738 5.8 -12.7°
Sets 20:14:01 0° 39° (NE) 3,787 6.5 -13.1°
